Weather History for Columbia / Mount Pleasant, TN

Change the Weather History Date:

Thursday, December 5, 2013

  Actual Average (KBNA) Record (KBNA)
Temperature  
Mean Temperature 55 °F 43 °F  
Max Temperature 73 °F 52 °F 72 °F (1953)
Min Temperature 37 °F 34 °F 14 °F (1886)
Degree Days  
Heating Degree Days 10    
Month to date heating degree days  
Since 1 July heating degree days  
Cooling Degree Days 0    
Month to date cooling degree days  
Year to date cooling degree days  
Growing Degree Days 5 (Base 50)    
Moisture  
Dew Point 53 °F    
Average Humidity 94    
Maximum Humidity 100    
Minimum Humidity 83    
Precipitation  
Precipitation 0.00 in 0.16 in 2.91 in (2013)
Month to date precipitation 0.77  
Year to date precipitation 43.78  
Snow  
Snow 0.00 in 0.00 in 2.90 in (1945)
Month to date snowfall 0.0  
Since 1 July snowfall T  
Snow Depth -    
Sea Level Pressure  
Sea Level Pressure 29.96 in    
Wind  
Wind Speed 10 mph (West)    
Max Wind Speed 15 mph    
Max Gust Speed -    
Visibility 8 miles    
Events      
T = Trace of Precipitation, MM = Missing Value Source: NWS Daily Summary

Daily Weather History Graph

Daily Weather History Graph

Search for Another Location

Airport:

Trip Planner

Search our weather history database for the weather conditions in past years. The results will help you decide how hot, cold, wet, or windy it might be!

Date:

Astronomy

Dec. 05, 2013 Rise Set
Actual Time 6:43 AM CST 4:35 PM CST
Civil Twilight 6:15 AM CST 5:03 PM CST
Nautical Twilight 5:43 AM CST 5:35 PM CST
Astronomical Twilight 5:12 AM CST 6:06 PM CST
Moon 9:05 AM CST (12/5) 7:52 PM CST (12/5)
Length of Visible Light 10h 48m
Length of Day
9h 52m
Waxing Crescent, 11% of the Moon is Illuminated
Dec 5
Waxing Crescent
Dec 9
First Quarter
Dec 17
Full
Dec 25
Last Quarter
Jan 1
New

Hourly Weather History & Observations

Time (CST) Temp. Windchill Dew Point Humidity Pressure Visibility Wind Dir Wind Speed Gust Speed Precip Events Conditions
12:35 AM 68.0 °F - 64.4 °F 88% 29.88 in 10.0 mi SSW 15.0 mph - N/A   Partly Cloudy
12:55 AM 68.0 °F - 64.4 °F 88% 29.87 in 10.0 mi South 11.5 mph - N/A   Mostly Cloudy
1:15 AM 68.0 °F - 64.4 °F 88% 29.88 in 10.0 mi SSW 11.5 mph - N/A   Overcast
1:35 AM 68.0 °F - 64.4 °F 88% 29.89 in 10.0 mi SSW 11.5 mph - N/A   Overcast
1:55 AM 68.0 °F - 64.4 °F 88% 29.89 in 10.0 mi SSW 11.5 mph - N/A   Overcast
2:15 AM 68.0 °F - 64.4 °F 88% 29.89 in 10.0 mi South 10.4 mph - N/A   Overcast
2:35 AM 68.0 °F - 64.4 °F 88% 29.89 in 10.0 mi SSW 11.5 mph - N/A   Overcast
2:55 AM 69.8 °F - 64.4 °F 83% 29.89 in 10.0 mi SSW 11.5 mph - N/A   Overcast
3:15 AM 69.8 °F - 64.4 °F 83% 29.89 in 10.0 mi SSW 9.2 mph - N/A   Overcast
3:35 AM 69.8 °F - 64.4 °F 83% 29.89 in 10.0 mi SSW 10.4 mph - N/A   Overcast
3:55 AM 69.8 °F - 64.4 °F 83% 29.89 in 10.0 mi SSW 11.5 mph - N/A   Overcast
4:15 AM 69.8 °F - 64.4 °F 83% 29.89 in 10.0 mi SSW 12.7 mph - N/A   Mostly Cloudy
4:35 AM 69.8 °F - 64.4 °F 83% 29.90 in 10.0 mi SSW 12.7 mph - N/A   Mostly Cloudy
4:55 AM 68.0 °F - 64.4 °F 88% 29.89 in 10.0 mi SSW 12.7 mph - N/A   Mostly Cloudy
5:15 AM 68.0 °F - 64.4 °F 88% 29.90 in 10.0 mi South 9.2 mph - N/A   Partly Cloudy
5:35 AM 68.0 °F - 64.4 °F 88% 29.91 in 10.0 mi SSW 10.4 mph - N/A   Scattered Clouds
5:55 AM 68.0 °F - 64.4 °F 88% 29.91 in 10.0 mi SSW 12.7 mph - N/A   Mostly Cloudy
6:15 AM 68.0 °F - 64.4 °F 88% 29.91 in 10.0 mi SSW 9.2 mph - N/A   Overcast
6:35 AM 68.0 °F - 64.4 °F 88% 29.92 in 10.0 mi South 9.2 mph - N/A   Overcast
6:55 AM 68.0 °F - 64.4 °F 88% 29.92 in 10.0 mi South 11.5 mph - N/A   Overcast
7:15 AM 68.0 °F - 64.4 °F 88% 29.93 in 10.0 mi SSW 9.2 mph - N/A   Overcast
7:35 AM 66.2 °F - 66.2 °F 100% 29.93 in 9.0 mi South 10.4 mph - N/A   Overcast
7:55 AM 68.0 °F - 66.2 °F 94% 29.93 in 10.0 mi South 9.2 mph - N/A   Overcast
8:15 AM 68.0 °F - 66.2 °F 94% 29.94 in 10.0 mi SSW 10.4 mph - N/A   Overcast
8:35 AM 69.8 °F - 66.2 °F 88% 29.94 in 10.0 mi SSW 9.2 mph - N/A   Overcast
8:55 AM 69.8 °F - 66.2 °F 88% 29.94 in 10.0 mi SSW 10.4 mph - N/A   Overcast
9:15 AM 69.8 °F - 66.2 °F 88% 29.94 in 10.0 mi South 8.1 mph - N/A   Overcast
9:35 AM 68.0 °F - 66.2 °F 94% 29.95 in 7.0 mi SSW 8.1 mph - N/A   Mostly Cloudy
9:55 AM 69.8 °F - 66.2 °F 88% 29.95 in 10.0 mi SSW 10.4 mph - N/A   Overcast
10:15 AM 69.8 °F - 68.0 °F 94% 29.95 in 10.0 mi SSW 6.9 mph - N/A   Mostly Cloudy
10:35 AM 69.8 °F - 68.0 °F 94% 29.94 in 10.0 mi SSW 10.4 mph - N/A   Mostly Cloudy
10:55 AM 71.6 °F - 69.8 °F 94% 29.93 in 7.0 mi SSW 11.5 mph - N/A   Mostly Cloudy
11:15 AM 73.4 °F - 69.8 °F 88% 29.91 in 10.0 mi SW 12.7 mph - N/A   Mostly Cloudy
11:35 AM 71.6 °F - 68.0 °F 88% 29.91 in 9.0 mi SW 10.4 mph - N/A   Overcast
11:55 AM 57.2 °F - 57.2 °F 100% 29.93 in 1.2 mi NW 12.7 mph - N/A   Overcast
12:15 PM 53.6 °F - 53.6 °F 100% 29.93 in 2.0 mi NNW 10.4 mph - N/A   Overcast
12:35 PM 51.8 °F - 51.8 °F 100% 29.95 in 0.8 mi Variable 4.6 mph - N/A   Overcast
12:55 PM 51.8 °F - 51.8 °F 100% 29.93 in 1.8 mi North 9.2 mph - N/A   Overcast
1:15 PM 50.0 °F - 48.2 °F 94% 29.92 in 3.0 mi NNW 5.8 mph - N/A   Overcast
1:35 PM 48.2 °F - 48.2 °F 100% 29.94 in 3.0 mi North 6.9 mph - N/A   Overcast
1:55 PM 48.2 °F - 48.2 °F 100% 29.94 in 1.0 mi North 6.9 mph - N/A   Overcast
2:15 PM 48.2 °F - 48.2 °F 100% 29.95 in 1.8 mi Variable 3.5 mph - N/A   Overcast
2:35 PM 48.2 °F - 48.2 °F 100% 29.96 in 4.0 mi NNW 5.8 mph - N/A   Overcast
2:55 PM 46.4 °F 42.9 °F 46.4 °F 100% 29.97 in 9.0 mi NNW 6.9 mph - N/A   Overcast
3:15 PM 46.4 °F 42.9 °F 46.4 °F 100% 29.97 in 9.0 mi North 6.9 mph - N/A   Overcast
3:35 PM 46.4 °F 43.5 °F 46.4 °F 100% 29.99 in 8.0 mi North 5.8 mph - N/A   Overcast
3:55 PM 46.4 °F 42.9 °F 46.4 °F 100% 29.98 in 5.0 mi North 6.9 mph - N/A   Overcast
4:15 PM 46.4 °F 42.9 °F 44.6 °F 93% 29.98 in 3.0 mi North 6.9 mph - N/A   Overcast
4:35 PM 44.6 °F 40.2 °F 44.6 °F 100% 30.00 in 4.0 mi NNW 8.1 mph - N/A   Overcast
4:55 PM 42.8 °F 37.5 °F 42.8 °F 100% 29.99 in 9.0 mi North 9.2 mph - N/A   Overcast
5:15 PM 42.8 °F 38.0 °F 42.8 °F 100% 30.00 in 10.0 mi North 8.1 mph - N/A   Overcast
5:35 PM 42.8 °F 38.0 °F 42.8 °F 100% 30.01 in 6.0 mi North 8.1 mph - N/A   Overcast
5:55 PM 42.8 °F 37.0 °F 41.0 °F 93% 30.01 in 10.0 mi North 10.4 mph - N/A   Overcast
6:15 PM 41.0 °F 35.2 °F 39.2 °F 93% 30.03 in 10.0 mi North 9.2 mph - N/A   Overcast
6:35 PM 39.2 °F 32.0 °F 37.4 °F 93% 30.04 in 10.0 mi North 11.5 mph - N/A   Overcast
6:55 PM 39.2 °F 31.6 °F 37.4 °F 93% 30.04 in 10.0 mi North 12.7 mph - N/A   Overcast
7:15 PM 37.4 °F 30.8 °F 37.4 °F 100% 30.05 in 10.0 mi North 9.2 mph - N/A   Overcast
7:35 PM 37.4 °F 31.4 °F 37.4 °F 100% 30.05 in 10.0 mi NNE 8.1 mph - N/A   Overcast
7:55 PM 37.4 °F 31.4 °F 37.4 °F 100% 30.04 in 10.0 mi NE 8.1 mph - N/A   Overcast
8:15 PM 37.4 °F 32.8 °F 37.4 °F 100% 30.06 in 10.0 mi North 5.8 mph - N/A   Overcast
8:35 PM 37.4 °F 31.4 °F 37.4 °F 100% 30.03 in 4.0 mi NE 8.1 mph - N/A   Overcast
8:55 PM 37.4 °F 33.8 °F 37.4 °F 100% 30.04 in 6.0 mi NE 4.6 mph - N/A   Overcast
9:15 PM 37.4 °F 32.8 °F 37.4 °F 100% 30.04 in 7.0 mi North 5.8 mph - N/A   Overcast
9:35 PM 37.4 °F 32.8 °F 37.4 °F 100% 30.04 in 7.0 mi NNE 5.8 mph - N/A   Overcast
9:55 PM 37.4 °F 31.4 °F 37.4 °F 100% 30.05 in 5.0 mi North 8.1 mph - N/A   Overcast
10:15 PM 37.4 °F 32.8 °F 37.4 °F 100% 30.06 in 10.0 mi North 5.8 mph - N/A   Overcast
10:35 PM 37.4 °F 30.8 °F 37.4 °F 100% 30.09 in 3.0 mi NNW 9.2 mph - N/A   Overcast
10:55 PM 37.4 °F 32.8 °F 37.4 °F 100% 30.08 in 3.0 mi North 5.8 mph - N/A   Overcast
11:15 PM 37.4 °F 31.4 °F 35.6 °F 93% 30.07 in 9.0 mi North 8.1 mph - N/A   Overcast
11:35 PM 37.4 °F 30.8 °F 35.6 °F 93% 30.06 in 9.0 mi NNE 9.2 mph - N/A   Overcast
11:55 PM 37.4 °F 31.4 °F 35.6 °F 93% 30.06 in 10.0 mi North 8.1 mph - N/A   Overcast